NOAA NWS Hourly Roundups by State/Area

State/Regional Roundup for California

To Select A State/Area Choose from List

Select State/Area:  


000
ASUS46 KSGX 240011
RWRSGX

SAN DIEGO HOURLY WEATHER ROUNDUP
NATIONAL WEATHER SERVICE SAN DIEGO CA
500 PM PDT MON APR 23 2018

NOTE: "FAIR" INDICATES FEW OR NO CLOUDS BELOW 12,000 FEET WITH NO
SIGNIFICANT WEATHER AND/OR OBSTRUCTIONS TO VISIBILITY.

CAZ042-043-060-061-PZZ750-775-240100-

GREATER SAN DIEGO AREA

CITY           SKY/WX    TMP DP  RH WIND       PRES   REMARKS
SAN DIEGO AP   PTSUNNY   67  56  67 W12       29.99R
NATIONAL CITY    N/A     68  59  73 W3        29.97F
CHULA VISTA      N/A     67  59  76 W7        29.89S
IMPERIAL BEACH PTSUNNY   63  55  75 W10       29.99R
BROWN FIELD    PTSUNNY   69  54  58 NW8       29.97S
MIRAMAR MCAS   MOSUNNY   76  49  38 W9        29.97R
MONTGOMERY FLD MOSUNNY   69  55  60 SW12      29.97R

$$

NORTH SAN DIEGO COUNTY

CITY           SKY/WX    TMP DP  RH WIND       PRES   REMARKS
CAMP PENDLETON PTSUNNY   65  56  72 SW14G21   29.95S
OCEANSIDE AP   MOSUNNY   64  55  72 W12       29.96S
OCEANSIDE HBR    N/A     61  57  87 NE3       29.99R
VISTA            N/A     72  57  57 SW1       29.93S
CARLSBAD       SUNNY     63  56  78 W10       29.96S
DEL MAR          N/A     64  58  80 CALM      29.99R
LA JOLLA SCRIP   N/A     61  57  87 W7        29.98R
FALLBROOK        N/A     72  58  60 S3        29.95S
ESCONDIDO        N/A     76  50  39 W9        29.95S
SAN MARCOS       N/A     73  55  53 SW9       29.99S
POWAY            N/A     80  50  34 NW2       29.94S

$$

EAST SAN DIEGO COUNTY

CITY           SKY/WX    TMP DP  RH WIND       PRES   REMARKS
RAMONA         MOSUNNY   80  45  28 W14       29.97S
SANTEE LAKES     N/A     77  51  38 SW2       29.93S
LA MESA          N/A     77  51  39 CALM      29.90R
JAMUL            N/A     77  52  42 CALM      29.95R
CAMPO            N/A     78  38  23 W12       29.96R

$$

ORANGE COUNTY AND THE LOS ANGELES BASIN

CITY           SKY/WX    TMP DP  RH WIND       PRES   REMARKS
JOHN WAYNE AP  MOSUNNY   67  55  65 SW6       29.96S
LAGUNA BEACH     N/A     66  58  76 CALM      29.91F
LAKE FOREST FR   N/A     77  51  39 W3        29.83S
HUNTINGTON BCH   N/A     63  57  81 W3        29.97F
LOS ALAMITOS   FAIR      66  55  66 S7        29.95F
FULLERTON      MOSUNNY   73  54  51 SW6       29.94S
LONG BEACH     MOSUNNY   73  55  53 NW8       29.95S
L.A. AP        CLOUDY    60  53  77 W15       29.98S
L.A. DOWNTOWN  SUNNY     66  55  67 CALM      29.96R

$$

THE INLAND EMPIRE

CITY           SKY/WX    TMP DP  RH WIND       PRES   REMARKS
CORONA         SUNNY     81  48  31 W15       29.93S
CHINO          MOSUNNY   85  41  21 W16       29.94S
ONTARIO        CLOUDY    83  48  29 W17       29.93S
SAN BERNARDINO PTSUNNY   88  37  16 W10       29.94S
RIVERSIDE AP   PTSUNNY   83  40  21 W14G23    29.92F
MORENO VALLEY    N/A     85  46  25 NW7       28.06R
HORSETHIEF CYN   N/A     86  33  15 CALM      29.89F
PERRIS           N/A     83  37  19 W8        29.87S
HEMET EAST       N/A     85  42  21 SW8       29.85S
FRENCH VALLEY  FAIR      82  46  28 S13       29.94S
TEMECULA         N/A     83  50  32 S2        29.96R

$$

SAN BERNARDINO AND RIVERSIDE COUNTY MOUNTAINS

CITY           SKY/WX    TMP DP  RH WIND       PRES   REMARKS
BIG BEAR AP    SUNNY     64  23  20 W13G18    30.18S
ANGELUS OAKS     N/A     68  38  33 CALM      29.87S

$$

SOUTHERN DESERT INCLUDING THE COACHELLA VALLEY

CITY           SKY/WX    TMP DP  RH WIND       PRES   REMARKS
PALM SPRINGS   SUNNY     97  27   8 VRB3      29.82F
THOUSAND PALMS   N/A     98  32  10 E6        29.78F
PALM DESERT      N/A    100  34  10 SE1       29.57S
THERMAL        SUNNY     98  26   7 SE8       29.77F
BLYTHE         SUNNY     96  29   9 VRB3      29.80F
IMPERIAL AP    PTSUNNY   96  32  10 SE7       29.79F
EL CENTRO NAS  PTSUNNY   96  30   9 SE7       29.80F
YUMA AZ        SUNNY     94  31  10 VRB5      29.82F
MEXICALI       PTSUNNY   95  28   9 SE7       29.82F

$$

UPPER DESERT

CITY           SKY/WX    TMP DP  RH WIND       PRES   REMARKS
VICTORVILLE AP SUNNY     88  19   8 SW12      29.95F
HESPERIA         N/A     80  39  23 W14       29.87F
APPLE VALLEY     N/A     84  41  21 NW12      29.89F
PALMDALE       SUNNY     83  38  20 W23       29.96S
LANCASTER      SUNNY     83  42  23 SW21G31   29.94S
EDWARDS AFB    MOSUNNY   88  36  15 SW18G31   29.89S
DAGGETT        SUNNY     94  21   7 W15       29.86F
29 PALMS N     MOSUNNY   92  17   6 S9        29.94F
NEEDLES        SUNNY     99  15   5 NW9       29.81F

$$

REGIONAL REPORTS

CITY           SKY/WX    TMP DP  RH WIND       PRES   REMARKS
SANTA BARBARA  PTSUNNY   57  53  86 W14       29.97F FOG
SANDBERG       SUNNY     70  40  33 S12G18    30.09S
LAS VEGAS NV   MOSUNNY   92  15   6 VRB5      29.86S
PHOENIX AZ     MOSUNNY   94  21   7 NE5       29.84S
TIJUANA        PTSUNNY   70  54  56 W10       29.99S
ENSENADA NW      N/A     60  32  34 CALM      29.94R

$$

OFFSHORE ISLANDS

CITY           SKY/WX    TMP DP  RH WIND       PRES   REMARKS
CATALINA ARPT  MOSUNNY   61  46  57 SW14      30.00F
SAN CLEMENTE I PTSUNNY   60  52  74 SW17      30.00S
SAN NICOLAS IS PTSUNNY   61  54  77 SW7       29.98F

$$

MARINE AND OFFSHORE BUOY REPORTS

STATION/POSITION SKY/WX   TEMP    WIND        PRES    VSBY  SWELL
                          AIR SEA DIR/SP/G                  HT/PER/DIR
                          (F)     (DEG/KT/KT) (MB)    (MI)  (FT/S/D)
TANNER BANKS               58 60              1015.5F
S CLEMENTE BASIN           58 62  270/ 16/ 17 1015.1F         3/230/14
SAN NICOLAS IS.               57                N/A           5/310/11
SO. S. ROSA ISLA           53 56  300/ 12/ 16 1015.6F         7/290/13
W. S. BARBARA CH              55  300/ 12/ 17 1015.4F         7/280/14
M. S. BARBARA CH           54 56  270/ 10/ 12 1016.1F         3/250/14
S. MONICA BASIN                   260/ 10/ 12 1015.0F         3/220/14
S PEDRO CHANNEL               59                N/A           2/170/14
CMP PENDLETON NS              62                N/A           2/210/14
OCEANSIDE OFFSHR              62                N/A           2/190/14
TORREY PINES OTR              63                N/A           2/200/13
SAN DIEGO BAY                 62              1014.8R
POINT LOMA SOUTH              61                N/A           3/220/13

$$




Previous San Diego State/Regional Hourly Roundups.

Products Courtesy of NOAA-NWS
NWS Information Parsing Script by Ken True at Saratoga Weather - Script by SE Lincoln Weather.